| time (UTC) | temp F | wind direction | speed MPH | gust MPH | rain 1hr in | rain 24hr in | rain mn in | humidity % | barometer mb |
| 20260510220041 | 70 | 350 | 3.0 | 6.0 | 0.00 | 0.00 | 0.00 | 28 | 1021.3 |
| 20260510214538 | 69 | 89 | 0.0 | 6.0 | 0.00 | 0.00 | 0.00 | 28 | 1021.2 |
| 20260510213045 | 68 | 335 | 4.0 | 9.0 | 0.00 | 0.00 | 0.00 | 30 | 1021.4 |
| 20260510211536 | 67 | 69 | 1.0 | 11.0 | 0.00 | 0.00 | 0.00 | 29 | 1021.5 |
| 20260510210034 | 68 | 329 | 8.0 | 14.0 | 0.00 | 0.00 | 0.00 | 29 | 1021.6 |
| 20260510204544 | 67 | 330 | 4.0 | 11.0 | 0.00 | 0.00 | 0.00 | 29 | 1021.7 |
| 20260510203033 | 67 | 335 | 6.0 | 15.0 | 0.00 | 0.00 | 0.00 | 28 | 1021.9 |
| 20260510201531 | 67 | 318 | 6.0 | 11.0 | 0.00 | 0.00 | 0.00 | 30 | 1022.0 |
| 20260510200030 | 66 | 5 | 5.0 | 11.0 | 0.00 | 0.00 | 0.00 | 31 | 1022.3 |
| 20260510194530 | 66 | 37 | 4.0 | 9.0 | 0.00 | 0.00 | 0.00 | 30 | 1022.3 |
| 20260510193032 | 66 | 349 | 1.0 | 11.0 | 0.00 | 0.00 | 0.00 | 29 | 1022.4 |
| 20260510191528 | 66 | 4 | 3.0 | 9.0 | 0.00 | 0.00 | 0.00 | 31 | 1022.4 |
| 20260510190027 | 66 | 340 | 2.0 | 12.0 | 0.00 | 0.00 | 0.00 | 31 | 1022.4 |
| 20260510184526 | 65 | 354 | 6.0 | 13.0 | 0.00 | 0.00 | 0.00 | 30 | 1022.3 |
| 20260510183026 | 66 | 41 | 6.0 | 14.0 | 0.00 | 0.00 | 0.00 | 29 | 1022.4 |
| 20260510181532 | 66 | 323 | 5.0 | 8.0 | 0.00 | 0.00 | 0.00 | 30 | 1022.5 |
| 20260510180024 | 65 | 80 | 4.0 | 8.0 | 0.00 | 0.00 | 0.00 | 31 | 1022.6 |
| 20260510174524 | 64 | 41 | 3.0 | 14.0 | 0.00 | 0.00 | 0.00 | 31 | 1022.7 |
| 20260510173023 | 64 | 54 | 5.0 | 11.0 | 0.00 | 0.00 | 0.00 | 31 | 1022.5 |
| 20260510171523 | 64 | 3 | 8.0 | 15.0 | 0.00 | 0.00 | 0.00 | 31 | 1022.4 |
| 20260510170022 | 64 | 67 | 7.0 | 12.0 | 0.00 | 0.00 | 0.00 | 32 | 1022.3 |
| 20260510164531 | 63 | 41 | 6.0 | 12.0 | 0.00 | 0.00 | 0.00 | 32 | 1022.3 |
| 20260510163020 | 63 | 345 | 6.0 | 11.0 | 0.00 | 0.00 | 0.00 | 32 | 1022.0 |
| 20260510161520 | 63 | 38 | 5.0 | 13.0 | 0.00 | 0.00 | 0.00 | 33 | 1022.4 |
| 20260510160020 | 62 | 340 | 4.0 | 12.0 | 0.00 | 0.00 | 0.00 | 33 | 1022.5 |
| 20260510154537 | 61 | 33 | 6.0 | 10.0 | 0.00 | 0.00 | 0.00 | 33 | 1022.4 |
| 20260510153021 | 61 | 29 | 7.0 | 12.0 | 0.00 | 0.00 | 0.00 | 34 | 1022.1 |
| 20260510151516 | 60 | 31 | 7.0 | 12.0 | 0.00 | 0.00 | 0.00 | 36 | 1021.9 |
| 20260510150015 | 59 | 36 | 4.0 | 14.0 | 0.00 | 0.00 | 0.00 | 36 | 1021.9 |
| 20260510144522 | 59 | 84 | 10.0 | 16.0 | 0.00 | 0.00 | 0.00 | 35 | 1022.0 |
| 20260510143014 | 59 | 23 | 6.0 | 14.0 | 0.00 | 0.00 | 0.00 | 37 | 1022.1 |
| 20260510141513 | 58 | 50 | 5.0 | 11.0 | 0.00 | 0.00 | 0.00 | 41 | 1022.2 |
| 20260510140012 | 56 | 32 | 4.0 | 9.0 | 0.00 | 0.00 | 0.00 | 42 | 1022.1 |
| 20260510134510 | 56 | 36 | 3.0 | 9.0 | 0.00 | 0.00 | 0.00 | 44 | 1022.0 |
| 20260510133008 | 55 | 30 | 4.0 | 6.0 | 0.00 | 0.00 | 0.00 | 44 | 1021.7 |
| 20260510131510 | 55 | 56 | 4.0 | 9.0 | 0.00 | 0.00 | 0.00 | 44 | 1021.4 |
| 20260510130004 | 55 | 41 | 4.0 | 8.0 | 0.00 | 0.00 | 0.00 | 43 | 1021.3 |
| 20260510124502 | 55 | 7 | 2.0 | 9.0 | 0.00 | 0.00 | 0.00 | 45 | 1020.9 |
| 20260510123101 | 55 | 350 | 5.0 | 9.0 | 0.00 | 0.00 | 0.00 | 45 | 1020.6 |
| 20260510121558 | 55 | 340 | 3.0 | 8.0 | 0.00 | 0.00 | 0.00 | 45 | 1020.5 |
| 20260510120055 | 55 | 335 | 5.0 | 9.0 | 0.00 | 0.00 | 0.00 | 45 | 1020.1 |
| 20260510114552 | 55 | 330 | 3.0 | 7.0 | 0.00 | 0.00 | 0.00 | 46 | 1019.7 |
| 20260510113057 | 55 | 18 | 3.0 | 8.0 | 0.00 | 0.00 | 0.00 | 43 | 1019.7 |
| 20260510111548 | 56 | 335 | 5.0 | 9.0 | 0.00 | 0.00 | 0.00 | 43 | 1019.4 |
| 20260510110045 | 56 | 340 | 5.0 | 11.0 | 0.00 | 0.00 | 0.00 | 43 | 1019.2 |
| 20260510104544 | 56 | 360 | 7.0 | 12.0 | 0.00 | 0.00 | 0.00 | 43 | 1019.4 |
| 20260510103040 | 57 | 320 | 5.0 | 9.0 | 0.00 | 0.00 | 0.00 | 43 | 1019.2 |
| 20260510101538 | 57 | 3 | 3.0 | 13.0 | 0.00 | 0.00 | 0.00 | 42 | 1018.7 |
| 20260510100034 | 57 | 340 | 4.0 | 9.0 | 0.00 | 0.00 | 0.00 | 43 | 1018.6 |
| 20260510094535 | 58 | 322 | 6.0 | 13.0 | 0.00 | 0.00 | 0.00 | 43 | 1018.1 |
| 20260510093030 | 58 | 351 | 6.0 | 12.0 | 0.00 | 0.00 | 0.00 | 44 | 1018.1 |
| 20260510091530 | 58 | 24 | 3.0 | 8.0 | 0.00 | 0.00 | 0.00 | 47 | 1017.9 |
| 20260510090028 | 58 | 13 | 5.0 | 12.0 | 0.00 | 0.00 | 0.00 | 48 | 1017.7 |
| 20260510084520 | 59 | 19 | 3.0 | 7.0 | 0.00 | 0.00 | 0.00 | 49 | 1017.5 |
| 20260510083019 | 60 | 3 | 5.0 | 11.0 | 0.00 | 0.00 | 0.00 | 45 | 1017.6 |
| 20260510081514 | 60 | 22 | 4.0 | 8.0 | 0.00 | 0.00 | 0.00 | 45 | 1017.4 |
| 20260510080009 | 61 | 345 | 4.0 | 10.0 | 0.00 | 0.00 | 0.00 | 47 | 1017.1 |
| 20260510074507 | 61 | 316 | 4.0 | 9.0 | 0.00 | 0.00 | 0.00 | 47 | 1016.7 |
| 20260510073008 | 61 | 354 | 3.0 | 7.0 | 0.00 | 0.00 | 0.00 | 50 | 1016.5 |
| 20260510071503 | 62 | 16 | 3.0 | 8.0 | 0.00 | 0.00 | 0.00 | 51 | 1016.4 |
| 20260510070106 | 62 | 345 | 1.0 | 7.0 | 0.00 | 0.00 | 0.00 | 53 | 1016.2 |
| 20260510064634 | 63 | 357 | 4.0 | 9.0 | 0.00 | 0.00 | 0.00 | 52 | 1015.8 |
| 20260510063053 | 63 | 22 | 2.0 | 6.0 | 0.00 | 0.00 | 0.00 | 52 | 1015.7 |
| 20260510061551 | 64 | 345 | 0.0 | 5.0 | 0.00 | 0.00 | 0.00 | 54 | 1015.5 |
| 20260510060050 | 64 | 5 | 2.0 | 6.0 | 0.00 | 0.00 | 0.00 | 55 | 1015.4 |
| 20260510054547 | 65 | 353 | 2.0 | 6.0 | 0.00 | 0.00 | 0.00 | 54 | 1015.0 |
| 20260510053047 | 65 | 355 | 2.0 | 5.0 | 0.00 | 0.00 | 0.00 | 53 | 1014.7 |
| 20260510051549 | 65 | 8 | 2.0 | 5.0 | 0.00 | 0.00 | 0.00 | 52 | 1014.4 |
| 20260510050037 | 66 | 32 | 0.0 | 7.0 | 0.00 | 0.00 | 0.00 | 52 | 1014.3 |
| 20260510044535 | 66 | 28 | 2.0 | 7.0 | 0.00 | 0.00 | 0.00 | 51 | 1014.0 |
| 20260510043035 | 66 | 29 | 2.0 | 8.0 | 0.00 | 0.00 | 0.00 | 50 | 1014.0 |
| 20260510041534 | 67 | 356 | 1.0 | 8.0 | 0.00 | 0.00 | 0.00 | 50 | 1013.9 |
| 20260510040038 | 67 | 6 | 2.0 | 7.0 | 0.00 | 0.00 | 0.00 | 51 | 1013.3 |
| 20260510034529 | 67 | 38 | 2.0 | 7.0 | 0.00 | 0.00 | 0.00 | 50 | 1013.0 |
| 20260510033028 | 67 | 60 | 0.0 | 7.0 | 0.00 | 0.00 | 0.00 | 51 | 1012.8 |
| 20260510031531 | 68 | 24 | 3.0 | 9.0 | 0.00 | 0.00 | 0.00 | 50 | 1012.5 |
| 20260510030026 | 69 | 354 | 3.0 | 13.0 | 0.00 | 0.00 | 0.00 | 47 | 1012.3 |
| 20260510024524 | 70 | 357 | 8.0 | 12.0 | 0.00 | 0.00 | 0.00 | 46 | 1012.3 |
| 20260510023020 | 70 | 340 | 2.0 | 6.0 | 0.00 | 0.00 | 0.00 | 48 | 1011.7 |
| 20260510021525 | 70 | 257 | 1.0 | 3.0 | 0.00 | 0.00 | 0.00 | 48 | 1011.0 |
| 20260510020019 | 71 | 301 | 0.0 | 2.0 | 0.00 | 0.00 | 0.00 | 47 | 1010.4 |
| 20260510014513 | 71 | 304 | 0.0 | 5.0 | 0.00 | 0.00 | 0.00 | 47 | 1010.2 |
| 20260510013011 | 71 | 349 | 2.0 | 8.0 | 0.00 | 0.00 | 0.00 | 46 | 1010.1 |
| 20260510011511 | 72 | 313 | 6.0 | 15.0 | 0.00 | 0.00 | 0.00 | 45 | 1009.9 |
| 20260510010010 | 73 | 318 | 4.0 | 13.0 | 0.00 | 0.00 | 0.00 | 44 | 1009.9 |
| 20260510004509 | 73 | 288 | 7.0 | 18.0 | 0.00 | 0.00 | 0.00 | 43 | 1009.3 |
| 20260510003009 | 74 | 353 | 9.0 | 17.0 | 0.00 | 0.00 | 0.00 | 43 | 1009.4 |
| 20260510001509 | 74 | 301 | 5.0 | 12.0 | 0.00 | 0.00 | 0.00 | 44 | 1009.1 |
| 20260510000008 | 75 | 311 | 4.0 | 13.0 | 0.00 | 0.00 | 0.00 | 44 | 1008.8 |
| 20260509234508 | 75 | 349 | 4.0 | 12.0 | 0.00 | 0.00 | 0.00 | 43 | 1008.8 |
| 20260509233007 | 76 | 8 | 10.0 | 16.0 | 0.00 | 0.00 | 0.00 | 42 | 1008.8 |
| 20260509231507 | 76 | 24 | 3.0 | 15.0 | 0.00 | 0.00 | 0.00 | 41 | 1008.7 |
| 20260509230007 | 77 | 309 | 7.0 | 18.0 | 0.00 | 0.00 | 0.00 | 40 | 1008.7 |
| 20260509224506 | 77 | 235 | 6.0 | 17.0 | 0.00 | 0.00 | 0.00 | 40 | 1008.5 |
| 20260509223005 | 77 | 4 | 5.0 | 15.0 | 0.00 | 0.00 | 0.00 | 40 | 1008.4 |
| 20260509221506 | 79 | 340 | 11.0 | 24.0 | 0.00 | 0.00 | 0.00 | 37 | 1008.2 |